Weather Roundup
Issued by NWS Chicago, IL

Home | Current Version | Previous Version | Graphics & Text | Print | Product List | Glossary On
Versions: 1 2 3 4 5 6 7 8 9 10 11 12 13 14 15 16 17 18 19 20 21 22 23 24 25 26 27 28 29 30 31 32 33 34 35 36 37 38 39 40 41 42 43 44 45 46 47 48 49 50
000
NZUS59 KLOT 222009
HRRLOT

CHICAGO AREA WEATHER ROUNDUP
NATIONAL WEATHER SERVICE CHICAGO/ROMEOVILLE IL
300 PM CDT THU JUN 22 2017

NOTE: "FAIR" INDICATES FEW OR NO CLOUDS BELOW 12,000 FEET WITH NO
SIGNIFICANT WEATHER AND/OR OBSTRUCTIONS TO VISIBILITY.

* THESE STATIONS ARE NOT UNDER NWS QUALITY CONTROL. THEY ALSO MAY NOT
  REPORT WEATHER SUCH AS PRECIPITATION OR FOG.

ILZ005-006-012>014-019>023-222100-
NORTHEAST ILLINOIS

CITY           SKY/WX    TMP DP  RH WIND       PRES   REMARKS
OHARE          PTSUNNY   87  68  52 SW13G24   29.77F HX  90
MIDWAY         PTSUNNY   88  70  55 SW15G24   29.77F HX  93
AURORA         PTSUNNY   85  71  63 S16G23    29.79F HX  90
LANSING*       CLOUDY    86  68  54 S21       29.81S HX  89
JOLIET*        CLOUDY    87  73  61 SW12      29.79F HX  94
WAUKEGAN       MOSUNNY   86  69  56 SW14G24   29.76F HX  90
DUPAGE AIRPORT PTSUNNY   84  72  67 S13       29.77F HX  89
WHEELING       MOSUNNY   86  71  60 SW14      29.78F HX  91
MORRIS*        PTSUNNY   85  70  59 SW15G22   29.78F HX  90
LEWIS AIRPORT* MOSUNNY  N/A N/A N/A SW18G25   29.79F
NORTHERLY ISL    N/A     86  66  51 S7          N/A  HX  88
$$

WIZ051-052-058>065-066-070>072-222100-
SOUTHEAST WISCONSIN

CITY           SKY/WX    TMP DP  RH WIND       PRES   REMARKS
MILWAUKEE      CLOUDY    85  67  54 SW14      29.75F HX  87
KENOSHA*       CLOUDY    85  66  53 SW14      29.76F HX  87
RACINE*        CLOUDY    85  67  54 SW15G24   29.77F HX  87
WAUKESHA       MOSUNNY   79  66  65 W6        29.79S HX  81
WEST BEND      CLOUDY    73  68  83 NW5       29.79R
$$

INZ001>003-010>013-019-020-222100-
NORTHWEST INDIANA

CITY           SKY/WX    TMP DP  RH WIND       PRES   REMARKS
GARY*          PTSUNNY   88  66  48 S12G23    29.80F HX  90
MICHIGAN CITY* NOT AVBL
RENSSELAER*    NOT AVBL
VALPARAISO     CLOUDY    87  70  56 SW21G29   29.83S HX  92
$$

LMZ740>746-222100-
SOUTHERN LAKE MICHIGAN

STATION/POSITION TIME  SKY/WX   TEMP WIND        PRES    VSBY
                                AIR  DIR/SP/G
                 (UTC)          (F)  (DEG/KT/KT) (MB)    (MI)
HARRISON CRIB    1940            80  200/ 11/ 14   N/A
BURNHAM HARBOR   2000            86                N/A
CALUMET HARBOR   1942            85  190/ 10/ 16 1008.3F
BURNS HARBOR     1940            83  210/ 12/ 17 1009.8F
MICHIGAN CITY    1940            83  200/ 15/ 19   N/A
$$

ABBREVIATIONS USED IN REMARKS
   TC - TEMPERATURE IN CELSIUS
  WCI - WIND CHILL INDEX
   HX - HEAT INDEX
  VSB - VISIBILITY
$$




USA.gov is the U.S. government's official web portal to all federal, state and local government web resources and services.